Regional Weather Roundup
Issued by NWS

Home | Current Version | Previous Version | Text Only | Print | Product List | Glossary On
Versions: 1 2 3 4 5 6 7 8 9 10 11 12 13 14 15 16 17 18 19 20 21 22 23 24 25 26 27 28 29 30 31 32 33 34 35 36 37 38 39 40 41 42 43 44 45 46 47 48 49 50
000
ASUS46 KSEW 310610
RWRWA

WASHINGTON REGIONAL WEATHER ROUNDUP
NATIONAL WEATHER SERVICE SEATTLE WA
1000 PM PST FRI JAN 30 2015

NOTE:"FAIR" INDICATES FEW OR NO CLOUDS BELOW 12,000 FEET WITH NO
SIGNIFICANT WEATHER AND/OR OBSTRUCTIONS TO VISIBILITY.

WAZ505-507>509-310700-
SEATTLE, TACOMA, EVERETT, AND VICINITY

CITY           SKY/WX    TMP DP  RH WIND       PRES   REMARKS
EVERETT        FOG       39  38  96 CALM      30.25S VSB<1/4
6HR MIN TEMP:  38; 6HR MAX TEMP:  50;

BOEING FIELD   FOG       39  36  87 SE8       30.25F VSB 3/4
6HR MIN TEMP:  39; 6HR MAX TEMP:  48;

RENTON         FOG       39  39 100 SE6       30.26S VSB 1/4
6HR MIN TEMP:  39; 6HR MAX TEMP:  49;

SEATAC AIRPORT FOG       40  39  97 CALM      30.25F VSB 1/8
6HR MIN TEMP:  36; 6HR MAX TEMP:  44;

JBLM-MCCHORD   FOG       41  41 100 SW2       30.24F VSB 1/4
6HR MIN TEMP:  40; 6HR MAX TEMP:  46;

PUYALLUP       FOG       37  37 100 CALM      30.25F VSB<1/4
BREMERTON      MOCLDY    32  32 100 CALM      30.27F
6HR MIN TEMP:  30; 6HR MAX TEMP:  48;

JBLM-FT LEWIS  FOG       40  40  99 S3        30.24F VSB 1/2
6HR MIN TEMP:  40; 6HR MAX TEMP:  44;

TACOMA NARROWS FOG       40  39  97 S3        30.25F VSB 1/4
6HR MIN TEMP:  40; 6HR MAX TEMP:  44;

$$

WAZ001-503-506-510-514-515-310700-
NORTH INTERIOR

CITY           SKY/WX    TMP DP  RH WIND       PRES   REMARKS
BELLINGHAM     FOG       36  34  92 CALM      30.26S VSB 1/2
6HR MIN TEMP:  36; 6HR MAX TEMP:  50;

FRIDAY HARBOR  CLEAR     40  37  89 CALM      30.27S
6HR MIN TEMP:  36; 6HR MAX TEMP:  49;

EASTSOUND      CLOUDY    41  41 100 CALM      30.26S FOG
PORT ANGELES   CLEAR     39  37  92 S6        30.26R
6HR MIN TEMP:  38; 6HR MAX TEMP:  49;

NAS WHIDBEY    PTCLDY    38  35  89 SE5       30.26F
6HR MIN TEMP:  37; 6HR MAX TEMP:  48;

ARLINGTON      CLEAR     37  32  81 CALM      30.26F
6HR MIN TEMP:  34; 6HR MAX TEMP:  52;

BURLINGTON     CLEAR     37 N/A N/A CALM      30.27S
$$

WAZ020-022-039-040-504-511-512-310700-
SOUTHWEST INTERIOR

CITY           SKY/WX    TMP DP  RH WIND       PRES   REMARKS
SHELTON        FOG       38  38 100 CALM      30.23F VSB 1/4
6HR MIN TEMP:  38; 6HR MAX TEMP:  42;

OLYMPIA        FOG       39  39 100 E3        30.26F VSB 1/4
6HR MIN TEMP:  39; 6HR MAX TEMP:  42;

CHEHALIS       FOG       41  41 100 CALM      30.26S VSB 1/4
KELSO          CLOUDY    41  37  87 CALM      30.28S
6HR MIN TEMP:  39; 6HR MAX TEMP:  52;

VANCOUVER      CLEAR     34  30  85 CALM      30.24F
6HR MIN TEMP:  33; 6HR MAX TEMP:  49;

SCAPPOOSE, OR  CLEAR     35  34  96 NW3       30.24S FOG
6HR MIN TEMP:  34; 6HR MAX TEMP:  51;

PORTLAND, OR   CLEAR     39  35  86 E3        30.24F
6HR MIN TEMP:  38; 6HR MAX TEMP:  48;

$$

WAZ021-516-517-310700-
WASHINGTON COAST

CITY           SKY/WX    TMP DP  RH WIND       PRES   REMARKS
FORKS          PTCLDY    43  42  97 NE5       30.25S
6HR MIN TEMP:  41; 6HR MAX TEMP:  54;

HOQUIAM        CLEAR     41  40  96 E3        30.24S FOG
6HR MIN TEMP:  40; 6HR MAX TEMP:  55;

ASTORIA, OR    FOG       37  36  96 CALM      30.22S VSB 1/2
6HR MIN TEMP:  37; 6HR MAX TEMP:  55;

$$

WAZ019-023-024-040-518-519-310700-
CASCADE MOUNTAINS AND COLUMBIA GORGE

CITY           SKY/WX    TMP DP  RH WIND       PRES   REMARKS
TROUTDALE, OR  CLEAR     41  33  73 E12       30.24F
6HR MIN TEMP:  41; 6HR MAX TEMP:  46;

THE DALLES, OR CLOUDY    40  34  79 E5        30.34F
6HR MIN TEMP:  40; 6HR MAX TEMP:  42;

$$

WAZ026-027-041>044-520-521-310700-
EAST SLOPES

CITY           SKY/WX    TMP DP  RH WIND       PRES   REMARKS
OMAK           CLOUDY    34  31  88 S6        30.26S
6HR MIN TEMP:  34; 6HR MAX TEMP:  37;

WENATCHEE      CLOUDY    36  31  82 NW6       30.26F
6HR MIN TEMP:  36; 6HR MAX TEMP:  37;

ELLENSBURG     CLOUDY    35  30  82 W7        30.25F
6HR MIN TEMP:  34; 6HR MAX TEMP:  38;

YAKIMA         CLOUDY    36  31  82 S3        30.30F
6HR MIN TEMP:  36; 6HR MAX TEMP:  38;

$$

WAZ028-034-035-310700-
COLUMBIA BASIN

CITY           SKY/WX    TMP DP  RH WIND       PRES   REMARKS
EPHRATA        CLOUDY    36  34  92 S7        30.26F
6HR MIN TEMP:  36; 6HR MAX TEMP:  38;

MOSES LAKE     CLOUDY    36  34  92 S6        30.28F
6HR MIN TEMP:  36; 6HR MAX TEMP:  38;

PASCO          CLOUDY    38  34  85 SW5       30.35S
6HR MIN TEMP:  38; 6HR MAX TEMP:  40;

HERMISTON, OR  CLOUDY    37  34  89 NW3       30.32F
6HR MIN TEMP:  37; 6HR MAX TEMP:  38;

$$

WAZ036>038-310700-
NORTHEAST WASHINGTON

CITY           SKY/WX    TMP DP  RH WIND       PRES   REMARKS
SPOKANE GEIGER FLURRIES  30  28  92 SW6       30.23S
6HR MIN TEMP:  29; 6HR MAX TEMP:  30; 6HR PCP: TRACE;

SPOKANE FELTS  LGT SNOW  32  28  85 CALM      30.27R FOG
6HR MIN TEMP:  31; 6HR MAX TEMP:  32; 6HR PCP: TRACE;

FAIRCHILD AFB  LGT SNOW  28  28 100 SW6       30.22F FOG
COEURDALENE,ID CLOUDY    30  28  93 W10       30.23R WCI  21
6HR MIN TEMP:  30; 6HR MAX TEMP:  32;

DEER PARK      LGT SNOW  29  28  96 SW6       30.25S FOG
6HR MIN TEMP:  28; 6HR MAX TEMP:  29; 6HR PCP:  0.01;

$$

WAZ029>033-310700-
SOUTHEAST WASHINGTON

CITY           SKY/WX    TMP DP  RH WIND       PRES   REMARKS
PULLMAN        CLOUDY    30  28  92 SW3       30.25S
6HR MIN TEMP:  30; 6HR MAX TEMP:  33;

LEWISTON, ID   CLOUDY    36  32  85 CALM      30.28F
6HR MIN TEMP:  35; 6HR MAX TEMP:  37;

WALLA WALLA    CLOUDY    36  33  89 S3        30.29F
6HR MIN TEMP:  36; 6HR MAX TEMP:  37; 6HR PCP: TRACE;

PENDLETON, OR  CLOUDY    34  31  88 CALM      30.27F
6HR MIN TEMP:  34; 6HR MAX TEMP:  35;

$$



USA.gov is the U.S. government's official web portal to all federal, state and local government web resources and services.